Location: Be Tobo
(6.6442°N, 10.6239°W)
Time: 01:18:22
(UTC+00:00)

Meteor 1-21 - Pass Details

Date: 18 September 2020
Orbit: 845 x 887 km, 81.2° (Epoch: 20 October)

Event Time Altitude Azimuth Distance (km) Brightness Sun altitude
Rises 20:07:08 0° 356° (N) 3,391 7.4 -22.3°
Reaches altitude 10° 20:09:32 10° 357° (N) 2,457 6.7 -22.9°
Maximum altitude 20:15:06 83° 84° (E) 855 4.0 -24.3°
Enters shadow 20:20:34 11° 173° (S) 2,416 6.4 -25.7°
